Miscellaneous Local Product
Issued by NWS North Platte, NE

Home | Current Version | Previous Version | Text Only | Print | Product List | Glossary On
Versions: 1 2 3 4 5 6 7 8 9 10 11 12 13 14 15 16 17 18 19 20 21 22 23 24 25 26 27 28 29 30 31 32 33 34 35 36 37 38 39 40 41 42 43 44 45 46 47 48 49 50
000
AXUS43 KLBF 011510
MISLBF


WESTERN AND NORTH CENTRAL NEBRASKA HOURLY WEATHER ROUNDUP
NATIONAL WEATHER SERVICE NORTH PLATTE NE
900 AM CST SUN FEB 01 2015

***STATIONS NOT REPORTING VARIABLES SUCH AS SKY/WEATHER OR
PRESSURE ARE PROVIDED BY THE NEBRASKA DEPARTMENT OF
ROADS...RAWS...AND APRS NETWORKS...AND ARE NOT UNDER
NATIONAL WEATHER SERVICE QUALITY CONTROL***

...OBSERVATIONS IN AND NEAR THE EASTERN PANHANDLE OF NEBRASKA...

CITY           SKY/WX    TMP DP  RH WIND       PRES   REMARKS
PINE RIDGE     LGT SNOW   4  -2  76 N10G16    30.31R WCI -11
CHADRON        CLOUDY     6   1  80 N9        30.32R WCI  -8
ALLIANCE       CLOUDY     6   1  80 N17       30.21R WCI -13
SIDNEY         LGT SNOW  10   6  84 N20       30.16R FOG     WCI  -9
WHITECLAY        N/A     30  23  74 NW13        N/A  WCI  20
CRESCENT LAKE    N/A      6   1  78 N15G22      N/A  WCI -12
LISCO            N/A     13   3  63 W16         N/A  WCI  -3
LEWELLEN         N/A      9   1  71 SW14        N/A  WCI  -7
$$

...OBSERVATIONS IN NORTH CENTRAL NEBRASKA...

CITY           SKY/WX    TMP DP  RH WIND       PRES   REMARKS
VALENTINE      LGT SNOW   1  -6  72 N18G29    30.29R VSB 1   WCI -20
THEDFORD       LGT SNOW   4   0  80 NW21G31   30.22R WCI -16
AINSWORTH      LGT SNOW   2  -3  81 N24       30.25R WCI -21
O`NEILL        SNOW       3  -1  84 NW26G35   30.22R VSB 1/2 WCI -20
ORD            LGT SNOW   6  -1  73 N25G33    30.17R VSB 3/4 WCI -16
BROKEN BOW     LGT SNOW   7   2  80 N29G39    30.16R VSB 1   WCI -16
BROWNLEE         N/A     -2  -7  78 N25         N/A  WCI -27
VALENTINE NWR    N/A      2  -3  81 N22G29      N/A  WCI -20
SPRINGVIEW       N/A      1  -3  83 NW15G26     N/A  WCI -18
HALSEY           N/A      3  -1  83 NW13G25     N/A  WCI -14
BREWSTER         N/A      8   3  82 SE26        N/A  WCI -14
ROSE             N/A     10   8  92 W23         N/A  WCI -10
NEWPORT          N/A      9   6  86 NW25        N/A  WCI -12
SARGENT          N/A      6   3  89 NW12G20     N/A  WCI  -9
COMSTOCK         N/A      8   3  78 E26         N/A  WCI -14
CHAMBERS         N/A      4  -1  80 N13G20      N/A  WCI -13
EWING            N/A      4   1  88 N17G28      N/A  WCI -15
$$

...OBSERVATIONS IN SOUTHWEST NEBRASKA AND FAR NORTHEAST COLORADO...

CITY           SKY/WX    TMP DP  RH WIND       PRES   REMARKS
WRAY           FAIR      17  13  83 N13G22    30.18R WCI   4
IMPERIAL       CLOUDY    13   5  70 N20       30.20R WCI  -5
OGALLALA       CLOUDY    12   6  77 N26G36    30.21R WCI  -9
NORTH PLATTE   CLOUDY     8   1  73 NW23      30.21R WCI -13
MCCOOK         SUNNY     13   5  70 NW24      30.19R WCI  -7
LEXINGTON      CLOUDY    10   5  79 N22G29    30.18R HAZE    WCI  -9
BRADY            N/A      7   2  80 S5G12       N/A  WCI  -2
GOTHENBURG       N/A      8   3  80 NW18        N/A  WCI -11
CALLAWAY         N/A      5   2  86 N25         N/A  WCI -18
$$

...NORTH PLATTE AREA...

CITY           SKY/WX    TMP DP  RH WIND       PRES   REMARKS
AIRPORT        CLOUDY     8   1  73 NW23      30.21R WCI -13
DOWNTOWN         N/A      7   1  75 N13G25      N/A  WCI  -9
$$

...SOME WEATHER OBSERVATIONS FROM AROUND THE REGION...

CITY           SKY/WX    TMP DP  RH WIND       PRES   REMARKS
DENVER         CLOUDY    20  16  84 NE10      30.12R WCI   9
LARAMIE        FLURRIES  17  12  80 NW16      30.05R WCI   2
CHEYENNE       CLOUDY    13   9  84 N9G21     30.08R WCI   1
SCOTTSBLUFF    CLOUDY    17  10  74 N17G26    30.22R WCI   1
RAPID CITY     PTCLDY    -1  -5  82 N15       30.33R WCI -21
PIERRE         LGT SNOW  -2  -8  76 N21       30.42R WCI -25
WINNER         LGT SNOW   1  -5  75 NW22      30.34R WCI -21
SIOUX FALLS    LGT SNOW   6   2  83 N22G31    30.18R VSB 3/4 WCI -15
OMAHA          LGT SNOW  22  19  89 N26G33    29.94R BLWGSNOWWCI   5
GRAND ISLAND   BLWGSNOW   8   4  83 N29G39    30.13R VSB 1/4 WCI -15
KANSAS CITY    LGT SNOW  32  32 100 NW12      29.74R FOG     WCI  23
WICHITA        CLOUDY    27  20  75 NW29G38   29.97R WCI  11
HAYS           CLOUDY    18   5  57 NW25G35   30.10R WCI  -1
LIBERAL        SUNNY     27  18  69 N26G37    30.11R WCI  11
GOODLAND       SUNNY     16  12  84 N20G30    30.14R WCI  -1
$$



USA.gov is the U.S. government's official web portal to all federal, state and local government web resources and services.